Hinsdale, NY

6:41 PM EST on February 09, 2016 (GMT -0500)
Cattaraugus County-Olean

Weather History for KOLE - June, 2013

Change the Weather History Date:

Sunday, June 2, 2013

  Actual Average (KBFD) Record (KBFD)
Temperature  
Mean Temperature 63 °F 58 °F  
Max Temperature 69 °F 70 °F 83 °F (2007)
Min Temperature 55 °F 46 °F 30 °F (1966)
Degree Days  
Heating Degree Days 2 4  
Month to date heating degree days 8  
Since 1 June heating degree days 8  
Since 1 July heating degree days 7636  
Cooling Degree Days 0 1  
Month to date cooling degree days 2  
Year to date cooling degree days 12  
Since 1 June cooling degree days 2  
Growing Degree Days 13 (Base 50)    
Moisture  
Dew Point 58 °F    
Average Humidity 80    
Maximum Humidity 100    
Minimum Humidity 56    
Precipitation  
Precipitation 0.00 in 0.16 in 0.97 in (1965)
Month to date precipitation 0.31  
Year to date precipitation 17.05  
Sea Level Pressure  
Sea Level Pressure 29.84 in    
Wind  
Wind Speed 7 mph (WSW)    
Max Wind Speed 15 mph    
Max Gust Speed 37 mph    
Visibility 10 miles    
Events Rain , Thunderstorm    
T = Trace of Precipitation, MM = Missing Value Source: NWS Daily Summary

Daily Weather History Graph

Daily Weather History Graph

Search for Another Location

Airport or City:

Trip Planner

Search our weather history database for the weather conditions in past years. The results will help you decide how hot, cold, wet, or windy it might be!

Date:

Astronomy

Jun. 02, 2013 Rise Set
Actual Time 5:39 AM EDT 8:44 PM EDT
Civil Twilight 5:05 AM EDT 9:18 PM EDT
Nautical Twilight 4:21 AM EDT 10:01 PM EDT
Astronomical Twilight 3:30 AM EDT 10:53 PM EDT
Moon 2:11 AM EDT (6/2) 3:07 PM EDT (6/2)
Length of Visible Light 16h 13m
Length of Day
15h 05m
Waning Crescent, 31% of the Moon is Illuminated
Jun 2
Waning Crescent
Jun 8
New
Jun 16
First Quarter
Jun 23
Full
Jun 30
Last Quarter

Hourly Weather History & Observations

Time (EDT) Temp. Dew Point Humidity Pressure Visibility Wind Dir Wind Speed Gust Speed Precip Events Conditions
12:15 AM 69.8 °F 62.6 °F 78% 29.86 in 10.0 mi SSW 5.8 mph - N/A   Scattered Clouds
12:35 AM 69.8 °F 62.6 °F 78% 29.85 in 10.0 mi SSW 8.1 mph - N/A Thunderstorm Thunderstorm
12:55 AM 69.8 °F 62.6 °F 78% 29.85 in 10.0 mi SSW 5.8 mph - N/A   Mostly Cloudy
1:15 AM 69.8 °F 62.6 °F 78% 29.84 in 10.0 mi SSW 6.9 mph - N/A   Overcast
1:35 AM 69.8 °F 62.6 °F 78% 29.83 in 10.0 mi SSW 6.9 mph - N/A   Overcast
1:55 AM 69.8 °F 60.8 °F 73% 29.83 in 10.0 mi South 6.9 mph - N/A   Overcast
2:15 AM 69.8 °F 62.6 °F 78% 29.82 in 10.0 mi SSW 6.9 mph - N/A   Overcast
2:35 AM 69.8 °F 62.6 °F 78% 29.81 in 10.0 mi South 9.2 mph - N/A   Overcast
2:55 AM 68.0 °F 62.6 °F 83% 29.80 in 7.0 mi SSW 6.9 mph - N/A Rain Rain
3:15 AM 68.0 °F 62.6 °F 83% 29.80 in 10.0 mi SSW 6.9 mph - N/A Thunderstorm Overcast
3:35 AM 68.0 °F 62.6 °F 83% 29.79 in 10.0 mi SSW 5.8 mph - N/A Thunderstorm Mostly Cloudy
3:55 AM 66.2 °F 62.6 °F 88% 29.81 in 4.0 mi SSW 15.0 mph 25.3 mph N/A Rain , Thunderstorm Heavy Thunderstorms and Rain
4:15 AM 64.4 °F 62.6 °F 94% 29.79 in 7.0 mi SSW 9.2 mph 19.6 mph N/A Rain Light Rain
4:35 AM 62.6 °F 60.8 °F 94% 29.84 in 2.5 mi WSW 15.0 mph 36.8 mph N/A Rain , Thunderstorm Rain
4:55 AM 62.6 °F 60.8 °F 94% 29.84 in 10.0 mi SW 9.2 mph 19.6 mph N/A Rain Rain
5:15 AM 60.8 °F 60.8 °F 100% 29.82 in 7.0 mi SW 5.8 mph 16.1 mph N/A Rain Rain
5:35 AM 60.8 °F 60.8 °F 100% 29.82 in 7.0 mi SW 5.8 mph - N/A Rain Light Rain
5:55 AM 60.8 °F 60.8 °F 100% 29.82 in 10.0 mi SW 8.1 mph - N/A Rain Rain
6:15 AM 60.8 °F 60.8 °F 100% 29.82 in 7.0 mi SW 5.8 mph - N/A Rain Rain
6:35 AM 60.8 °F 60.8 °F 100% 29.81 in 10.0 mi South 6.9 mph - N/A Rain Light Rain
6:55 AM 60.8 °F 60.8 °F 100% 29.81 in 7.0 mi SSW 6.9 mph - N/A Rain Rain
7:15 AM 60.8 °F 60.8 °F 100% 29.82 in 10.0 mi SSW 6.9 mph - N/A Rain Rain
7:35 AM 60.8 °F 60.8 °F 100% 29.82 in 10.0 mi SSW 8.1 mph - N/A   Overcast
7:55 AM 60.8 °F 60.8 °F 100% 29.81 in 7.0 mi SSW 8.1 mph - N/A Rain Light Rain
8:15 AM 60.8 °F 60.8 °F 100% 29.81 in 10.0 mi SSW 8.1 mph - N/A   Mostly Cloudy
8:35 AM 62.6 °F 60.8 °F 94% 29.82 in 10.0 mi SSW 9.2 mph - N/A   Scattered Clouds
8:55 AM 62.6 °F 60.8 °F 94% 29.81 in 10.0 mi SSW 6.9 mph - N/A   Mostly Cloudy
9:15 AM 62.6 °F 60.8 °F 94% 29.81 in 10.0 mi SW 5.8 mph - N/A   Overcast
9:35 AM 62.6 °F 60.8 °F 94% 29.82 in 10.0 mi SW 9.2 mph - N/A   Overcast
9:55 AM 62.6 °F 60.8 °F 94% 29.82 in 10.0 mi SSW 8.1 mph - N/A   Overcast
10:15 AM 62.6 °F 60.8 °F 94% 29.82 in 10.0 mi SW 9.2 mph 17.3 mph N/A   Mostly Cloudy
10:35 AM 66.2 °F 62.6 °F 88% 29.82 in 10.0 mi WSW 10.4 mph 18.4 mph N/A   Mostly Cloudy
10:55 AM 64.4 °F 59.0 °F 83% 29.82 in 10.0 mi SW 8.1 mph 21.9 mph N/A   Mostly Cloudy
11:15 AM 66.2 °F 60.8 °F 83% 29.82 in 10.0 mi WSW 8.1 mph - N/A   Overcast
11:35 AM 68.0 °F 59.0 °F 73% 29.83 in 10.0 mi SW 9.2 mph - N/A   Mostly Cloudy
11:55 AM 68.0 °F 60.8 °F 78% 29.83 in 10.0 mi SW 8.1 mph 16.1 mph N/A   Scattered Clouds
12:15 PM 66.2 °F 59.0 °F 78% 29.83 in 10.0 mi SW 8.1 mph 19.6 mph N/A   Mostly Cloudy
12:35 PM 68.0 °F 59.0 °F 73% 29.82 in 10.0 mi WSW 6.9 mph - N/A   Mostly Cloudy
12:55 PM 69.8 °F 59.0 °F 68% 29.82 in 10.0 mi WSW 6.9 mph - N/A   Mostly Cloudy
1:15 PM 68.0 °F 57.2 °F 68% 29.82 in 10.0 mi WSW 9.2 mph 20.7 mph N/A   Overcast
1:35 PM 68.0 °F 57.2 °F 68% 29.83 in 10.0 mi WSW 10.4 mph 20.7 mph N/A   Overcast
1:55 PM 68.0 °F 59.0 °F 73% 29.83 in 10.0 mi SSW 11.5 mph 17.3 mph N/A   Overcast
2:15 PM 68.0 °F 60.8 °F 78% 29.83 in 10.0 mi SW 10.4 mph 17.3 mph N/A   Mostly Cloudy
2:35 PM 69.8 °F 60.8 °F 73% 29.83 in 10.0 mi SW 9.2 mph - N/A   Scattered Clouds
2:55 PM 69.8 °F 59.0 °F 68% 29.82 in 10.0 mi SW 9.2 mph - N/A   Scattered Clouds
3:15 PM 68.0 °F 59.0 °F 73% 29.83 in 10.0 mi WSW 5.8 mph - N/A   Overcast
3:35 PM 68.0 °F 57.2 °F 68% 29.83 in 10.0 mi WSW 9.2 mph 16.1 mph N/A   Overcast
3:55 PM 68.0 °F 60.8 °F 78% 29.83 in 10.0 mi West 3.5 mph - N/A   Overcast
4:15 PM 68.0 °F 59.0 °F 73% 29.83 in 10.0 mi West 11.5 mph 21.9 mph N/A   Overcast
4:35 PM 69.8 °F 59.0 °F 68% 29.83 in 10.0 mi West 5.8 mph 20.7 mph N/A   Mostly Cloudy
4:55 PM 69.8 °F 57.2 °F 64% 29.83 in 10.0 mi West 9.2 mph 17.3 mph N/A   Mostly Cloudy
5:15 PM 69.8 °F 57.2 °F 64% 29.84 in 10.0 mi WNW 4.6 mph - N/A   Mostly Cloudy
5:35 PM 69.8 °F 57.2 °F 64% 29.84 in 10.0 mi WNW 5.8 mph - N/A   Scattered Clouds
5:55 PM 68.0 °F 55.4 °F 64% 29.85 in 10.0 mi West 5.8 mph 17.3 mph N/A   Mostly Cloudy
6:15 PM 68.0 °F 55.4 °F 64% 29.85 in 10.0 mi West 6.9 mph - N/A   Overcast
6:35 PM 68.0 °F 53.6 °F 60% 29.85 in 10.0 mi West 12.7 mph 18.4 mph N/A   Mostly Cloudy
6:55 PM 68.0 °F 51.8 °F 56% 29.85 in 10.0 mi West 6.9 mph 16.1 mph N/A   Scattered Clouds
7:15 PM 66.2 °F 51.8 °F 60% 29.85 in 10.0 mi WNW 4.6 mph - N/A   Clear
7:35 PM 64.4 °F 51.8 °F 64% 29.86 in 10.0 mi West 3.5 mph 16.1 mph N/A   Clear
7:55 PM 64.4 °F 51.8 °F 64% 29.86 in 10.0 mi WNW 4.6 mph - N/A   Clear
8:15 PM 62.6 °F 51.8 °F 68% 29.87 in 10.0 mi West 3.5 mph - N/A   Clear
8:35 PM 62.6 °F 51.8 °F 68% 29.87 in 10.0 mi West 6.9 mph - N/A   Scattered Clouds
8:55 PM 60.8 °F 51.8 °F 72% 29.88 in 10.0 mi West 4.6 mph - N/A   Scattered Clouds
9:15 PM 60.8 °F 51.8 °F 72% 29.88 in 10.0 mi West 4.6 mph - N/A   Scattered Clouds
9:35 PM 60.8 °F 51.8 °F 72% 29.88 in 10.0 mi Calm Calm - N/A   Scattered Clouds
9:55 PM 59.0 °F 51.8 °F 77% 29.89 in 10.0 mi West 4.6 mph - N/A   Scattered Clouds
10:15 PM 59.0 °F 51.8 °F 77% 29.89 in 10.0 mi Calm Calm - N/A   Clear
10:35 PM 59.0 °F 51.8 °F 77% 29.89 in 10.0 mi West 3.5 mph - N/A   Clear
10:55 PM 57.2 °F 53.6 °F 88% 29.90 in 10.0 mi Calm Calm - N/A   Scattered Clouds
11:15 PM 57.2 °F 53.6 °F 88% 29.91 in 10.0 mi West 3.5 mph - N/A   Mostly Cloudy
11:35 PM 57.2 °F 53.6 °F 88% 29.91 in 10.0 mi WNW 3.5 mph - N/A   Overcast
11:55 PM 55.4 °F 53.6 °F 94% 29.91 in 10.0 mi WNW 6.9 mph - N/A   Overcast